sat.trackr.live / text

‹ back to catalog

STARLINK-36581

NORAD 67543 · 2026-014M

PAYLOAD ACTIVE UNKNOWN

§ Identity

Operator
Country
US
Launch date
2026-01-22
Launch site
AFWTR
Launch vehicle
Mass (kg)
RCS (m²)

Purposes: comms

External: N2YO · Heavens-Above · Gunter

§ Orbital elements

Epoch: 2026-05-24T23:12:44.318304Z

Period
93.90 min
Inclination
97.2871°
Eccentricity
0.0001286
Mean motion
15.33481820 rev/d
Perigee alt
464.6 km
Apogee alt
466.3 km
Semi-major
6,843.6 km
B*
9.2181e-4
RAAN
32.0239°
Arg perigee
99.1942°
Mean anomaly
260.9446°
Rev number
2,047

§ Raw data

STARLINK-365811 67543U 26014M   26144.96717961  .00029837  00000+0  92181-3 0  99932 67543  97.2871  32.0239 0001286  99.1942 260.9446 15.33481820 20470

JSON: /api/v1/satellites/67543 · /tle

For live sub-satellite position, see the globe view (requires WebGL).

§ Visibility from observer

Set your observer location to see the next 7 days of passes ≥ 10°. The values pass through the URL so the page stays shareable.

No JS? Fill the form by hand. The geolocation button needs JavaScript.